SCP
0 0 0 0 0 0 0 0 0 0 0 0 0 0 0 0 0 0 0 0 0 0 0 0 0 0 0 0 0 0 0 0 0 0 0 0 0 0 0 0 0 0 0 0
0 0 0 0 0 0 0 0 0 0 0 0 0 0 0 0 0 0 0 0 0 0 0 0 0 0 0 0 0 0 0 0 0 0 0 0 0 0 0 0 0 0 0 0
0 0 0 0 0 0 0 0 0 0 0 0 0 0 0 0 0 0 0 0 0 0 0 0 0 0 0 0 0 0 0 0 0 0 0 0 0 0 0 0 0 0 0 0
0 0 0 0 0 0 0 0 0 0 0 0 0 0 0 0 0 0 0 0 0 0 0 0 0 0 0 0 0 0 0 0 0 0 0 0 0 0 0 0 0 0 0 0
0 0 0 0 0 0 0 0 0 0 0 0 0 0 0 0 0 0 0 0 0 0 0 0 0 -0 0 0 0 0 0 0 0 0 0 0 0 0 0 0 0 0 0 0
0 0 0 0 0 0 0 0 0 0 0 0 0 0 0 0 0 0 0 0 0 0 0 0 0 0 0 0 0 0 -0 0 0 0 0 0 0 0 0 0 0 0 0 0
0 0 0 0 0 0 0 0 0 0 0 0 0 0 0 0 0 0 0 0 0 0 0 0 0 0 0 0 0 0 0 0 0 -0 -0 -0 0 0 0 0 0 0 0 0
0 0 0 0 0 0 0 0 0 0 0 0 0 0 0 0 0 0 0 0 0 0 0 0 0 0 0 0 0 0 0 0 0 0 0 0 0 0 -0 0 0 0 0 0
0 0 0 0 0 0 0 0 0 0 0 0 0 0 0 0 0 0 0 0 0 0 0 0 0 0 0 0 0 0 0 0 0 0 0 0 0 0 0 0 0 0 0 0
0 0 0 0 0 0 0 0 0 0 0 0 0 0 0 0 0 0 0 0 0 0 0 0 0 0 0 0 0 0 0 0 0 0 0 0 0 0 -0 0 0 0 -0 -0
0 0 0 0 0 0 0 0 0 0 0 0 0 0 0 0 0 0 0 0 0 0 0 0 0 0 0 0 0 0 0 0 0 0 0 0 0 0 0 -0 -0 -0 -0 -0
0 0 0 0 0 0 0 0 0 0 0 0 0 0 0 0 0 0 0 0 0 0 0 0 0 0 0 0 0 0 0 0 0 0 0 0 -0 -0 -0 -0 -0 -0 -0 -0
0 0 0 0 0 0 0 0 0 0 0 0 0 0 0 0 0 0 0 0 0 0 0 0 0 0 0 0 0 0 0 0 0 0 0 0 0 0 0 0 -0 -0 -0 -0
0 -0 -0 0 0 0 0 0 0 0 0 0 0 0 0 0 0 0 0 0 0 0 0 0 0 0 0 0 0 0 0 0 0 0 0 0 0 0 0 0 0 0 -0 -0
0 0 0 0 0 0 0 0 0 0 0 0 0 0 0 0 0 0 0 0 0 0 0 0 0 0 0 0 0 0 0 0 0 0 0 0 0 0 0 0 0 0 0 0
0 0 0 0 0 0 0 0 0 0 0 0 0 0 0 0 0 0 0 0 0 0 0 0 0 0 0 0 0 0 0 0 0 0 0 0 0 0 0 0 0 0 0 0
-0 0 0 0 0 0 0 0 0 0 0 0 0 0 0 0 0 0 0 0 0 0 0 0 0 0 0 0 0 0 0 0 0 0 0 0 0 0 0 0 0 0 0 0
0 0 0 0 0 0 0 0 0 0 0 0 0 0 0 0 0 0 0 0 0 0 0 0 0 0 0 0 0 0 0 0 0 0 0 0 0 0 0 0 0 0 0 0
0 0 0 0 0 0 0 0 0 0 0 0 0 0 0 0 0 0 0 0 0 0 0 0 0 0 0 0 0 0 0 0 0 0 0 0 0 0 0 0 0 0 0 0
0 0 0 0 0 0 0 0 0 0 0 0 0 0 0 0 0 0 0 0 0 0 0 0 0 0 0 0 0 0 0 0 0 0 0 0 0 0 0 0 0 0 0 0
0 0 0 0 0 0 0 0 0 0 0 0 0 0 0 0 0 0 0 0 0 0 0 0 0 0 0 0 0 0 0 0 0 0 0 0 0 0 0 0 0 0 0 0
0 0 0 0 0 0 0 0 0 0 0 0 0 0 0 0 0 0 0 0 0 0 0 0 0 0 0 0 0 0 0 0 0 0 0 0 0 0 0 0 0 0 0 0
0 0 0 0 0 0 0 0 0 0 0 0 0 0 0 0 0 0 0 0 0 0 0 0 0 0 0 0 0 0 0 0 0 0 0 0 0 0 0 -0 -0 -0 -0 -0
0 0 0 0 0 0 0 0 0 0 0 0 0 0 0 0 0 0 0 0 0 0 0 0 0 0 0 0 0 0 0 0 0 0 0 0 0 -0 -0 -0 -0 -0 -0 -0
0 0 0 0 0 0 0 0 0 0 0 0 0 0 0 0 0 0 0 0 0 0 0 0 0 0 0 0 0 0 0 0 0 0 0 -0 -0 -0 -0 -0 -0 -0 -0 0
0 0 0 0 0 0 0 0 0 0 0 0 0 0 0 0 0 0 0 0 0 0 0 0 0 0 0 0 0 0 0 0 0 -0 -0 -0 -0 0 0 0 0 -0 0 0
0 0 0 0 0 0 0 0 0 0 0 0 0 0 0 0 0 0 0 0 0 0 0 0 0 0 0 0 0 0 0 -0 -0 -0 -0 -0 0 0 0 0 -0 -0 0 0
Wind_Speed_500mb
20 25 23 25 29 29 26 20 9 19 41 16 12 25 14 12 12 30 24 14 25 30 27 27 22 14 23 17 7 10 12 9 12 30 23 10 14 32 33 21 22 10 10 23
11 15 22 17 15 1 15 13 24 22 48 15 24 11 17 35 32 30 14 22 20 24 33 26 31 32 43 52 25 12 8 9 22 14 23 27 17 24 21 17 17 42 34 28
16 18 18 18 17 5 16 7 6 19 42 42 23 31 32 29 33 31 32 27 37 36 38 41 32 42 12 26 45 58 27 30 38 39 38 7 12 16 17 31 30 38 39 49
22 22 22 17 15 14 15 14 10 9 9 26 26 33 23 38 36 24 34 20 37 41 35 42 48 32 30 36 49 33 19 41 36 55 56 50 58 58 58 53 53 50 59 58
23 21 22 22 20 15 20 7 7 13 14 21 12 28 38 38 40 32 38 29 30 29 25 24 34 19 10 8 12 14 12 27 44 61 58 52 55 66 65 65 66 69 59 60
30 26 26 26 24 20 13 14 27 12 14 7 2 15 14 14 6 5 15 10 3 15 13 24 33 32 34 33 22 33 19 19 28 38 16 42 37 50 71 71 59 48 54 58
26 33 32 31 25 31 34 35 26 10 12 11 10 6 9 12 10 11 12 19 6 6 43 46 35 35 44 42 41 40 33 37 29 40 40 53 31 14 31 53 50 48 26 30
40 33 33 34 37 32 43 33 32 15 9 11 20 26 15 25 21 20 25 18 19 23 23 8 12 12 12 23 41 43 38 35 23 27 40 41 43 16 17 17 10 35 23 27
44 43 47 44 38 39 41 44 40 30 11 15 43 20 19 6 5 8 29 30 16 14 3 6 9 9 7 10 16 8 26 16 17 27 23 26 15 29 52 29 17 39 22 23
51 51 50 47 45 47 46 53 46 45 25 50 43 16 14 14 8 5 10 11 6 7 5 5 6 10 9 8 7 9 8 9 15 24 29 13 15 19 33 11 17 24 20 28
55 56 54 53 49 47 48 61 56 53 37 53 39 33 32 19 16 8 5 8 5 3 4 7 7 6 6 3 5 5 7 7 7 9 8 25 53 25 9 20 24 26 33 39
60 55 58 55 52 51 44 56 54 54 57 41 33 32 43 58 58 50 28 22 13 18 5 1 4 3 2 9 8 8 8 12 6 8 10 46 59 23 52 20 16 22 31 40
59 56 55 55 53 51 49 53 52 51 56 56 63 58 78 72 77 76 45 44 46 45 39 9 5 9 7 5 10 6 9 20 7 6 11 20 54 63 46 15 28 40 42 48
54 56 58 56 54 55 49 53 56 57 25 11 36 46 56 65 59 51 78 82 53 43 34 16 8 7 20 9 11 13 15 2 15 18 30 48 49 42 31 44 47 40 48 54
55 59 59 59 55 52 52 57 63 63 58 7 9 30 35 26 32 51 56 69 68 55 22 10 10 11 6 6 8 16 32 31 22 30 45 41 48 54 47 47 37 43 49 61
56 54 54 51 52 50 48 46 73 76 67 18 4 26 44 55 68 72 71 64 65 48 20 13 20 45 18 9 10 24 52 66 74 47 72 58 66 63 46 30 41 53 54 62
55 51 48 48 45 46 55 13 9 29 59 19 5 7 19 51 61 64 57 59 35 37 27 15 20 32 23 9 21 32 58 61 67 59 54 43 48 23 32 51 49 61 72 77
53 50 48 47 47 50 61 71 45 31 28 18 6 6 5 17 17 16 40 34 36 24 23 13 13 24 19 14 27 59 67 60 54 29 32 34 44 49 49 55 65 76 85 89
49 46 44 46 54 53 55 54 39 53 45 7 8 8 10 16 15 15 15 18 7 15 10 13 16 11 13 19 34 29 15 9 17 23 30 34 36 52 59 66 76 75 92 95
41 36 33 17 20 49 31 13 20 18 23 24 7 18 7 24 21 9 7 11 6 6 9 8 9 15 49 6 4 2 8 16 23 26 25 44 55 58 70 76 80 77 85 96
34 18 21 19 25 27 19 13 14 16 7 17 21 39 16 26 7 7 16 6 5 5 10 11 3 6 5 2 4 7 11 17 22 27 34 40 49 66 77 90 91 93 95 93
28 18 22 27 17 11 9 9 6 6 9 7 8 21 38 20 18 7 12 8 7 9 3 7 5 6 5 7 12 17 22 29 34 39 48 52 58 64 73 80 88 88 85 84
38 22 18 16 14 12 13 14 6 2 7 17 16 5 17 12 20 4 6 9 10 6 5 9 9 8 7 19 25 29 35 42 48 53 56 62 69 71 71 78 78 75 75 76
21 17 13 11 6 9 8 11 9 9 6 10 16 7 5 6 4 5 6 8 7 4 7 14 1 8 24 30 35 45 52 53 59 63 66 68 69 72 70 68 65 65 71 71
20 14 13 9 7 10 15 23 17 6 9 6 5 5 3 2 6 6 2 2 8 11 11 3 6 24 32 40 45 49 54 59 63 64 66 67 64 63 64 58 56 55 55 54
13 4 8 3 7 1 10 10 10 4 9 8 5 4 5 7 5 8 11 9 12 8 4 12 24 34 38 42 44 48 53 56 60 59 58 58 55 52 53 52 48 44 41 44
12 2 16 17 21 15 7 8 11 7 8 5 3 8 17 3 4 6 7 10 3 5 18 21 27 33 38 40 45 48 50 52 51 51 47 46 41 41 44 45 39 33 31 28
Wind_Direction_500mb
307 306 301 299 288 272 243 232 237 214 193 175 210 232 226 228 196 220 240 245 253 265 274 260 242 237 233 210 180 221 212 151 218 266 285 268 221 261 239 237 240 219 233 257
327 322 336 328 304 10 191 227 238 230 205 222 222 224 245 232 250 241 205 240 232 242 255 270 246 258 269 270 236 232 177 250 275 261 280 236 216 228 234 255 251 238 243 255
294 296 302 316 328 218 206 235 254 204 212 230 240 237 242 240 244 248 239 249 260 262 264 262 268 269 252 257 254 259 251 247 241 251 248 254 232 222 229 236 250 257 243 252
277 273 284 297 304 316 210 224 243 244 220 233 244 250 267 265 262 250 269 256 253 258 260 274 265 277 305 287 282 263 234 251 238 246 252 252 256 258 256 249 255 252 257 258
277 279 263 272 284 283 220 255 281 321 286 300 240 225 241 251 263 263 260 266 269 278 281 297 292 277 244 263 318 342 331 278 274 261 249 240 237 249 255 261 260 258 261 265
267 269 267 264 267 264 254 247 274 282 269 307 23 245 256 263 6 319 290 311 354 260 285 316 301 280 256 250 266 286 272 285 292 280 309 309 280 260 252 254 260 261 264 266
261 262 263 257 249 250 247 249 267 268 259 237 229 285 351 299 320 288 281 315 312 295 318 317 300 272 257 251 248 240 264 270 272 280 285 268 291 320 256 251 266 279 319 23
253 258 252 253 256 253 252 242 239 249 270 268 276 282 287 306 313 292 280 244 258 297 327 334 342 309 329 255 246 250 231 248 267 261 267 281 278 334 358 332 332 21 19 18
258 256 256 248 245 242 243 243 243 237 253 240 252 248 246 232 227 280 260 275 292 307 177 85 206 228 247 290 310 339 306 281 275 292 290 285 50 358 331 313 214 355 40 2
256 257 259 255 254 253 242 246 239 235 248 260 245 236 243 229 198 215 274 268 236 230 185 150 175 225 220 251 225 316 359 330 264 274 276 270 54 350 336 296 323 328 347 333
261 254 255 254 250 252 248 246 238 233 242 253 239 244 238 236 220 176 218 347 279 45 176 149 237 209 201 264 208 278 283 292 301 323 288 263 4 354 1 289 295 300 323 325
259 256 252 252 248 253 252 253 252 244 242 250 255 247 254 246 249 254 232 226 182 226 119 268 57 318 308 166 264 239 269 204 211 183 253 308 312 302 305 288 305 302 302 316
260 261 257 254 251 249 247 253 256 246 241 253 254 250 264 264 254 252 237 244 242 243 249 192 211 225 149 190 235 206 254 262 237 336 256 279 284 293 289 297 311 317 314 312
261 265 261 256 254 250 243 249 254 249 243 244 259 266 263 269 260 250 238 249 246 247 238 226 198 194 200 220 238 216 227 265 245 265 276 278 276 280 282 299 302 289 303 310
257 259 258 253 252 252 255 256 255 247 231 274 278 276 264 260 263 246 244 243 240 239 239 216 225 223 200 239 251 246 240 251 255 263 268 275 282 288 284 298 287 302 307 307
262 260 259 257 250 250 250 258 252 243 238 252 259 275 264 262 251 243 246 243 240 229 222 231 236 239 213 220 226 246 252 248 248 259 269 277 276 285 294 270 293 303 300 303
267 259 257 251 245 242 234 234 230 192 216 233 243 262 266 249 240 238 233 235 222 218 233 223 233 238 213 235 249 261 256 258 264 269 270 275 281 270 278 298 299 303 306 309
264 262 257 253 255 252 246 237 214 234 192 203 231 245 328 215 196 198 220 213 217 224 230 234 229 253 231 248 248 256 263 269 270 261 257 264 280 289 296 301 307 310 310 312
264 262 260 258 248 236 236 243 240 232 230 224 196 165 236 197 229 203 190 188 186 213 212 224 217 226 226 229 253 274 272 282 286 282 290 294 294 301 306 310 313 311 309 310
262 257 245 221 204 216 224 196 196 210 221 227 225 200 232 207 189 215 131 180 212 212 234 184 216 239 248 293 252 220 304 305 315 329 318 316 311 313 312 311 311 308 305 307
245 231 227 206 181 170 171 197 200 193 213 206 215 210 215 206 169 193 206 188 192 208 247 164 253 273 200 253 286 311 316 319 322 314 308 306 305 308 311 311 309 309 311 308
233 244 204 175 172 181 183 190 180 203 214 224 174 210 196 183 187 145 186 187 178 235 118 108 256 236 90 350 326 320 319 318 314 313 313 312 308 309 308 308 310 314 312 309
240 219 196 168 178 195 197 173 262 221 213 189 183 207 178 164 197 169 156 186 218 91 90 214 220 99 4 344 333 322 322 322 319 318 317 315 315 316 316 315 317 315 315 318
206 192 199 186 194 222 180 177 179 189 201 184 165 132 179 165 123 187 171 222 109 192 196 230 123 345 336 334 331 325 323 324 322 322 321 319 318 319 321 320 320 322 316 316
211 192 201 181 143 74 110 118 121 126 136 142 104 78 203 255 221 199 155 217 233 202 222 170 290 325 326 325 324 322 322 322 320 321 319 320 323 322 319 324 326 322 319 321
200 143 126 158 114 79 84 108 118 134 149 127 102 146 175 232 216 193 215 141 218 229 188 301 321 325 322 321 322 321 320 319 318 320 321 323 324 322 322 326 326 324 325 330
143 119 108 110 88 98 124 115 146 159 158 175 148 186 212 26 226 230 196 210 203 197 313 325 328 320 322 325 322 323 323 321 322 325 326 321 324 328 326 323 331 333 339 338
Wind_Speed_850mb
20 25 23 25 29 29 26 20 9 19 41 16 12 25 14 12 12 30 24 14 25 30 27 27 22 14 23 17 7 10 12 9 12 30 23 10 14 32 33 21 22 10 10 23
11 15 22 17 15 1 15 13 24 22 48 15 24 11 17 35 32 30 14 22 20 24 33 26 31 32 43 52 25 12 8 9 22 14 23 27 17 24 21 17 17 42 34 28
16 18 18 18 17 5 16 7 6 19 42 42 23 31 32 29 33 31 32 27 37 36 38 41 32 42 12 26 45 58 27 30 38 39 38 7 12 16 17 31 30 38 39 49
22 22 22 17 15 14 15 14 10 9 9 26 26 33 23 38 36 24 34 20 37 41 35 42 48 32 30 36 49 33 19 41 36 55 56 50 58 58 58 53 53 50 59 58
23 21 22 22 20 15 20 7 7 13 14 21 12 28 38 38 40 32 38 29 30 29 25 24 34 19 10 8 12 14 12 27 44 61 58 52 55 66 65 65 66 69 59 60
30 26 26 26 24 20 13 14 27 12 14 7 2 15 14 14 6 5 15 10 3 15 13 24 33 32 34 33 22 33 19 19 28 38 16 42 37 50 71 71 59 48 54 58
26 33 32 31 25 31 34 35 26 10 12 11 10 6 9 12 10 11 12 19 6 6 43 46 35 35 44 42 41 40 33 37 29 40 40 53 31 14 31 53 50 48 26 30
40 33 33 34 37 32 43 33 32 15 9 11 20 26 15 25 21 20 25 18 19 23 23 8 12 12 12 23 41 43 38 35 23 27 40 41 43 16 17 17 10 35 23 27
44 43 47 44 38 39 41 44 40 30 11 15 43 20 19 6 5 8 29 30 16 14 3 6 9 9 7 10 16 8 26 16 17 27 23 26 15 29 52 29 17 39 22 23
51 51 50 47 45 47 46 53 46 45 25 50 43 16 14 14 8 5 10 11 6 7 5 5 6 10 9 8 7 9 8 9 15 24 29 13 15 19 33 11 17 24 20 28
55 56 54 53 49 47 48 61 56 53 37 53 39 33 32 19 16 8 5 8 5 3 4 7 7 6 6 3 5 5 7 7 7 9 8 25 53 25 9 20 24 26 33 39
60 55 58 55 52 51 44 56 54 54 57 41 33 32 43 58 58 50 28 22 13 18 5 1 4 3 2 9 8 8 8 12 6 8 10 46 59 23 52 20 16 22 31 40
59 56 55 55 53 51 49 53 52 51 56 56 63 58 78 72 77 76 45 44 46 45 39 9 5 9 7 5 10 6 9 20 7 6 11 20 54 63 46 15 28 40 42 48
54 56 58 56 54 55 49 53 56 57 25 11 36 46 56 65 59 51 78 82 53 43 34 16 8 7 20 9 11 13 15 2 15 18 30 48 49 42 31 44 47 40 48 54
55 59 59 59 55 52 52 57 63 63 58 7 9 30 35 26 32 51 56 69 68 55 22 10 10 11 6 6 8 16 32 31 22 30 45 41 48 54 47 47 37 43 49 61
56 54 54 51 52 50 48 46 73 76 67 18 4 26 44 55 68 72 71 64 65 48 20 13 20 45 18 9 10 24 52 66 74 47 72 58 66 63 46 30 41 53 54 62
55 51 48 48 45 46 55 13 9 29 59 19 5 7 19 51 61 64 57 59 35 37 27 15 20 32 23 9 21 32 58 61 67 59 54 43 48 23 32 51 49 61 72 77
53 50 48 47 47 50 61 71 45 31 28 18 6 6 5 17 17 16 40 34 36 24 23 13 13 24 19 14 27 59 67 60 54 29 32 34 44 49 49 55 65 76 85 89
49 46 44 46 54 53 55 54 39 53 45 7 8 8 10 16 15 15 15 18 7 15 10 13 16 11 13 19 34 29 15 9 17 23 30 34 36 52 59 66 76 75 92 95
41 36 33 17 20 49 31 13 20 18 23 24 7 18 7 24 21 9 7 11 6 6 9 8 9 15 49 6 4 2 8 16 23 26 25 44 55 58 70 76 80 77 85 96
34 18 21 19 25 27 19 13 14 16 7 17 21 39 16 26 7 7 16 6 5 5 10 11 3 6 5 2 4 7 11 17 22 27 34 40 49 66 77 90 91 93 95 93
28 18 22 27 17 11 9 9 6 6 9 7 8 21 38 20 18 7 12 8 7 9 3 7 5 6 5 7 12 17 22 29 34 39 48 52 58 64 73 80 88 88 85 84
38 22 18 16 14 12 13 14 6 2 7 17 16 5 17 12 20 4 6 9 10 6 5 9 9 8 7 19 25 29 35 42 48 53 56 62 69 71 71 78 78 75 75 76
21 17 13 11 6 9 8 11 9 9 6 10 16 7 5 6 4 5 6 8 7 4 7 14 1 8 24 30 35 45 52 53 59 63 66 68 69 72 70 68 65 65 71 71
20 14 13 9 7 10 15 23 17 6 9 6 5 5 3 2 6 6 2 2 8 11 11 3 6 24 32 40 45 49 54 59 63 64 66 67 64 63 64 58 56 55 55 54
13 4 8 3 7 1 10 10 10 4 9 8 5 4 5 7 5 8 11 9 12 8 4 12 24 34 38 42 44 48 53 56 60 59 58 58 55 52 53 52 48 44 41 44
12 2 16 17 21 15 7 8 11 7 8 5 3 8 17 3 4 6 7 10 3 5 18 21 27 33 38 40 45 48 50 52 51 51 47 46 41 41 44 45 39 33 31 28
Wind_Direction_850mb
307 306 301 299 288 272 243 232 237 214 193 175 210 232 226 228 196 220 240 245 253 265 274 260 242 237 233 210 180 221 212 151 218 266 285 268 221 261 239 237 240 219 233 257
327 322 336 328 304 10 191 227 238 230 205 222 222 224 245 232 250 241 205 240 232 242 255 270 246 258 269 270 236 232 177 250 275 261 280 236 216 228 234 255 251 238 243 255
294 296 302 316 328 218 206 235 254 204 212 230 240 237 242 240 244 248 239 249 260 262 264 262 268 269 252 257 254 259 251 247 241 251 248 254 232 222 229 236 250 257 243 252
277 273 284 297 304 316 210 224 243 244 220 233 244 250 267 265 262 250 269 256 253 258 260 274 265 277 305 287 282 263 234 251 238 246 252 252 256 258 256 249 255 252 257 258
277 279 263 272 284 283 220 255 281 321 286 300 240 225 241 251 263 263 260 266 269 278 281 297 292 277 244 263 318 342 331 278 274 261 249 240 237 249 255 261 260 258 261 265
267 269 267 264 267 264 254 247 274 282 269 307 23 245 256 263 6 319 290 311 354 260 285 316 301 280 256 250 266 286 272 285 292 280 309 309 280 260 252 254 260 261 264 266
261 262 263 257 249 250 247 249 267 268 259 237 229 285 351 299 320 288 281 315 312 295 318 317 300 272 257 251 248 240 264 270 272 280 285 268 291 320 256 251 266 279 319 23
253 258 252 253 256 253 252 242 239 249 270 268 276 282 287 306 313 292 280 244 258 297 327 334 342 309 329 255 246 250 231 248 267 261 267 281 278 334 358 332 332 21 19 18
258 256 256 248 245 242 243 243 243 237 253 240 252 248 246 232 227 280 260 275 292 307 177 85 206 228 247 290 310 339 306 281 275 292 290 285 50 358 331 313 214 355 40 2
256 257 259 255 254 253 242 246 239 235 248 260 245 236 243 229 198 215 274 268 236 230 185 150 175 225 220 251 225 316 359 330 264 274 276 270 54 350 336 296 323 328 347 333
261 254 255 254 250 252 248 246 238 233 242 253 239 244 238 236 220 176 218 347 279 45 176 149 237 209 201 264 208 278 283 292 301 323 288 263 4 354 1 289 295 300 323 325
259 256 252 252 248 253 252 253 252 244 242 250 255 247 254 246 249 254 232 226 182 226 119 268 57 318 308 166 264 239 269 204 211 183 253 308 312 302 305 288 305 302 302 316
260 261 257 254 251 249 247 253 256 246 241 253 254 250 264 264 254 252 237 244 242 243 249 192 211 225 149 190 235 206 254 262 237 336 256 279 284 293 289 297 311 317 314 312
261 265 261 256 254 250 243 249 254 249 243 244 259 266 263 269 260 250 238 249 246 247 238 226 198 194 200 220 238 216 227 265 245 265 276 278 276 280 282 299 302 289 303 310
257 259 258 253 252 252 255 256 255 247 231 274 278 276 264 260 263 246 244 243 240 239 239 216 225 223 200 239 251 246 240 251 255 263 268 275 282 288 284 298 287 302 307 307
262 260 259 257 250 250 250 258 252 243 238 252 259 275 264 262 251 243 246 243 240 229 222 231 236 239 213 220 226 246 252 248 248 259 269 277 276 285 294 270 293 303 300 303
267 259 257 251 245 242 234 234 230 192 216 233 243 262 266 249 240 238 233 235 222 218 233 223 233 238 213 235 249 261 256 258 264 269 270 275 281 270 278 298 299 303 306 309
264 262 257 253 255 252 246 237 214 234 192 203 231 245 328 215 196 198 220 213 217 224 230 234 229 253 231 248 248 256 263 269 270 261 257 264 280 289 296 301 307 310 310 312
264 262 260 258 248 236 236 243 240 232 230 224 196 165 236 197 229 203 190 188 186 213 212 224 217 226 226 229 253 274 272 282 286 282 290 294 294 301 306 310 313 311 309 310
262 257 245 221 204 216 224 196 196 210 221 227 225 200 232 207 189 215 131 180 212 212 234 184 216 239 248 293 252 220 304 305 315 329 318 316 311 313 312 311 311 308 305 307
245 231 227 206 181 170 171 197 200 193 213 206 215 210 215 206 169 193 206 188 192 208 247 164 253 273 200 253 286 311 316 319 322 314 308 306 305 308 311 311 309 309 311 308
233 244 204 175 172 181 183 190 180 203 214 224 174 210 196 183 187 145 186 187 178 235 118 108 256 236 90 350 326 320 319 318 314 313 313 312 308 309 308 308 310 314 312 309
240 219 196 168 178 195 197 173 262 221 213 189 183 207 178 164 197 169 156 186 218 91 90 214 220 99 4 344 333 322 322 322 319 318 317 315 315 316 316 315 317 315 315 318
206 192 199 186 194 222 180 177 179 189 201 184 165 132 179 165 123 187 171 222 109 192 196 230 123 345 336 334 331 325 323 324 322 322 321 319 318 319 321 320 320 322 316 316
211 192 201 181 143 74 110 118 121 126 136 142 104 78 203 255 221 199 155 217 233 202 222 170 290 325 326 325 324 322 322 322 320 321 319 320 323 322 319 324 326 322 319 321
200 143 126 158 114 79 84 108 118 134 149 127 102 146 175 232 216 193 215 141 218 229 188 301 321 325 322 321 322 321 320 319 318 320 321 323 324 322 322 326 326 324 325 330
143 119 108 110 88 98 124 115 146 159 158 175 148 186 212 26 226 230 196 210 203 197 313 325 328 320 322 325 322 323 323 321 322 325 326 321 324 328 326 323 331 333 339 338